星链-34377 (STARLINK-34377)

导读 | 豆包AI

STARLINK-34377是美国于2025年6月4日发射的星链系列卫星,属于SpaceX打造的星链卫星互联网星座组网卫星。星链项目旨在为全球提供覆盖偏远地区的低延迟、高速宽带互联网服务,该卫星入轨后将逐步参与星座运行,进一步完善星链全球网络覆盖能力。

基本信息
目录编号:
64279
目录名称:
STARLINK-34377
国际标识:
2025-120Z
轨道中心:
EARTH
卫星名称:
星链-34377
卫星全名:
星链-34377 (STARLINK-34377)
卫星状态:
在轨 (已飞行329 天)
发射日期:
2025-06-04 UTC
国别 :
美国 (US)
星等 :
--
轨道信息
数据来源 国际轨道数据
星历时间: 2026-04-29T09:08:32+0800
13小时前
查看轨道信息
半长轴: 6817.802km
偏心率: 0.0001413
轨道倾角: 53.161°
近地点辐角 72.981°
升交点赤经 242.248°
平近点角 287.136°
近地点: 438.701km
远地点: 440.629km
周期: 93.374分钟
每日圈数: 15.421842
详细信息
固有亮度:
5
最大亮度:
2.5
卫星平台:
Starlink V1.0
覆盖范围:
全球
运营商:
太空探索技术公司
运营商所在国:
美国
制造商(研发单位):
太空探索技术公司
制造商所在国:
美国
使用方式:
暂无
卫星简介
Starlink 计划是 SpaceX 推出的全球卫星互联网项目,通过发射低轨道卫星,为全球尤其是偏远地区提供高速、低延迟的互联网服务。自 2019 年起,Starlink 已部署数千颗卫星,旨在缩小全球数字鸿沟,推动互联网普及。该项目还为军事、航空等行业提供通信支持,带来广泛经济效益。
2D轨道图
3D轨道图
轨道高度分析图
轨道倾角分析图
轨道综合分析图
查看轨道综合分析图